Regional Weather Roundup
Issued by NWS

Home | Current Version | Previous Version | Text Only | Print | Product List | Glossary Off
Versions: 1 2 3 4 5 6 7 8 9 10 11 12 13 14 15 16 17 18 19 20 21 22 23 24 25 26 27 28 29 30 31 32 33 34 35 36 37 38 39 40 41 42 43 44 45 46 47 48 49 50

000
ASUS45 KTFX 231810
RWRMT
MONTANA REGIONAL WEATHER ROUNDUP
NATIONAL WEATHER SERVICE GREAT FALLS MT
1200 PM MDT MON MAY 23 2016

NOTE: "FAIR" INDICATES FEW OR NO CLOUDS BELOW 12000 FEET WITH NO
SIGNIFICANT WEATHER AND/OR OBSTRUCTIONS TO VISIBILITY.

MTZ001>007-043-231900-
WEST OF THE DIVIDE

CITY           SKY/WX    TMP DP  RH WIND       PRES   REMARKS
KALISPELL      LGT RAIN  48  48 100 S17       29.76S
MISSOULA       CLOUDY    50  40  68 MISG      29.84R
BUTTE          CLOUDY    46  27  47 SW14      29.85R
MULLAN PASS    SNOW      32  32 100 W8        29.80R VSB 1/4 WCI  25
ANACONDA         N/A     48  30  49 SW6       29.82S
DEER LODGE       N/A     52  30  43 S5        29.82R
EUREKA           N/A     48  41  76 E9        29.76S
HAMILTON         N/A     52  36  54 S13       29.83S
LIBBY            N/A     48  45  87 NW6       29.78S
PLAINS           N/A     51  42  71 CALM      29.83R
$$

MTZ008-052>055-231900-
SOUTHWEST MONTANA

CITY           SKY/WX    TMP DP  RH WIND       PRES   REMARKS
BOZEMAN        CLOUDY    55  31  39 W13       29.82S
DILLON         CLOUDY    49  29  46 SW10      29.86R
ENNIS          CLOUDY    50  28  43 SW14      29.91R
$$

MTZ009-010-012-014-046-048-049-054-231900-
EAST SLOPES AND CENTRAL MONTANA

CITY           SKY/WX    TMP DP  RH WIND       PRES   REMARKS
CUT BANK       LGT RAIN  43  40  89 NW16      29.72R
GREAT FALLS    CLOUDY    54  35  48 SW18G26   29.71R
MALMSTROM AFB  CLOUDY    53  34  50 W17G24    29.72R
HELENA         CLOUDY    54  33  45 W10       29.78R
CHOTEAU          N/A     48  39  71 N5        29.74R
CONRAD           N/A     47  47 100 W10       29.78R
$$

MTZ011-013-016-021-045-047-050-051-231900-
NORTH CENTRAL MONTANA

CITY           SKY/WX    TMP DP  RH WIND       PRES   REMARKS
HAVRE          CLOUDY    50  43  77 W16       29.67R
LEWISTOWN      CLOUDY    52  36  54 SW21      29.73R
N BAR RANCH      N/A     50  34  53 W28G37    29.75S
CHINOOK          N/A     48  43  81 W16G26    29.66R
$$

MTZ017>020-022>027-061-062-231900-
NORTHEAST MONTANA

CITY           SKY/WX    TMP DP  RH WIND       PRES   REMARKS
GLASGOW        CLOUDY    58  41  53 W24G35    29.63S
JORDAN           N/A     58  39  49 W22G35    29.69R
SIDNEY         PTSUNNY   69  35  28 SW18G29   29.65R
WOLF POINT     CLOUDY    61  39  44 W17G28    29.65R
PLENTYWOOD       N/A     59  37  44 SW24G32   29.62R
POPLAR           N/A     63  37  39 W18       29.64S
SCOBEY           N/A     58  35  42 SW21      29.62R
$$

MTZ028>42-056>058-231900-
SOUTHCENTRAL AND SOUTHEAST MONTANA

CITY           SKY/WX    TMP DP  RH WIND       PRES   REMARKS
BAKER          MOSUNNY   67  30  25 W22G29    29.73R
BILLINGS       PTSUNNY   61  30  31 W16G24    29.76S
LIVINGSTON     MOSUNNY   55  31  39 W22       29.80R
MILES CITY     SUNNY     69  31  24 W18G28    29.70F
EKALAKA          N/A     65  30  27 W10       29.75F
FORSYTH          N/A     64  34  32 W18G28    29.71S
$$

REGIONAL REPORTS...DAKOTAS

CITY           SKY/WX    TMP DP  RH WIND       PRES   REMARKS
WILLISTON      MOSUNNY   69  32  25 SW21G30   29.63S
MINOT          SUNNY     80  30  16 S15G26    29.61S
DICKINSON      SUNNY     70  30  22 W20G25    29.68S
BEACH            N/A     66  30  26 W21G32    29.73R
CROSBY           N/A     68  34  28 SW23G29   29.63S
WATFORD CITY     N/A     70  32  24 SW24G35   29.65F
BISMARCK       SUNNY     77  40  26 NW13      29.68S
GRAND FORKS    MOSUNNY   77  57  50 W16G23    29.63R
FARGO          CLOUDY    79  48  33 W13G21    29.66R
BUFFALO SD       N/A     70  31  23 MISG      29.68S
RAPID CITY     SUNNY     70  39  32 SE8       29.74F
$$

REGIONAL REPORTS...WYOMING/IDAHO/WASHINGTON

CITY           SKY/WX    TMP DP  RH WIND       PRES   REMARKS
GILLETTE       SUNNY     64  27  24 SW25G33   29.76F
SHERIDAN       CLOUDY    65  28  24 N9        29.75S
BUFFALO WY     SUNNY     61  27  27 NE7       29.78S
CODY           SUNNY     55  25  30 W13G21    29.83R
YELLOWSTONE LA   N/A     35  26  69 MISG      29.95S
IDAHO FALLS    PTSUNNY   57  34  41 SW15G23   29.92F
SALMON         CLOUDY    52  36  54 N6        29.85S
BOISE            N/A     62  36  37 N5        29.90F
SPOKANE        LGT RAIN  50  43  77 SW18      29.82S
$$

REGIONAL REPORTS...ALBERTA

CITY           SKY/WX    TMP DP  RH WIND       PRES   REMARKS
EDMONTON       LGT RAIN  43  39  87 NW10      29.69R
CALGARY        LGT RAIN  46  36  66 N25G37    29.70R
LETHBRIDGE     LGT RAIN  45  41  87 W18G24    29.71R
MEDICINE HAT   CLOUDY    46  45  93 W17G23    29.61R
WATERTON GATE    N/A     41  37  87 E6          N/A
$$

REGIONAL REPORTS...SASKATCHEWAN

CITY           SKY/WX    TMP DP  RH WIND       PRES   REMARKS
SWIFT CURRENT  LGT RAIN  48  46  93 W20G29    29.47S
REGINA         CLOUDY    55  39  54 SW12G21   29.55S
SASKATOON      PTSUNNY   57  39  51 S7        29.51R
CYPRESS HILLS    N/A     39  37  93 W12G25      N/A  WCI  32
VAL MARIE        N/A     52  39  62 W25G31      N/A
ROCKGLEN         N/A     50  41  71 SW24G31     N/A
ASSINIBOIA       N/A     48  46  93 N16         N/A
$$



USA.gov is the U.S. government's official web portal to all federal, state and local government web resources and services.